Location: Bittelbronn
(48.4454°N, 8.5870°E)
Time: 09:52:47
(UTC+00:00)

Meteor 2-5 Rocket - Pass Details

Date: 16 August 2024
Orbit: 833 x 910 km, 81.2° (Epoch: 16 September)

Event Time Altitude Azimuth Distance (km) Brightness Sun altitude
Rises 00:04:18 0° 358° (N) 3,473 8.1 -27.4°
Reaches altitude 10° 00:07:33 10° 16° (NNE) 2,546 7.2 -27.4°
Maximum altitude 00:11:31 19° 60° (ENE) 2,011 6.1 -27.2°
Drops below altitude 10° 00:15:31 10° 103° (ESE) 2,568 6.2 -27.1°
Enters shadow 00:16:59 - 113° (ESE) 2,963 6.4 -27.0°
